EW8865 Weather Reports


time (UTC)temp
F
wind
direction
speed
knots
gust
knots
rain 1hr
in
rain 24hr
in
rain mn
in
humidity
%
barometer
mb
20260503021503 50 242 0.9 2.6 0.00 0.43 0.00 93 1009.4
20260503020504 50 242 1.7 2.6 0.00 0.43 0.00 92 1009.3
20260503020003 50 240 1.7 2.6 0.00 0.43 0.00 92 1009.4
20260503015005 50 275 0.0 1.7 0.00 0.43 0.00 92 1009.4
20260503013004 51 244 0.0 0.0 0.00 0.43 0.00 92 1009.6
20260503012503 51 244 0.0 1.7 0.00 0.43 0.00 92 1009.6
20260503011504 51 244 0.9 2.6 0.00 0.43 0.00 92 1009.6
20260503011005 52 252 0.9 2.6 0.00 0.43 0.00 93 1009.7
20260503010504 52 267 0.0 0.9 0.00 0.43 0.00 93 1009.7
20260503010005 52 267 0.0 1.7 0.00 0.43 0.00 93 1009.7
20260503005004 52 270 2.6 6.1 0.00 0.43 0.00 93 1009.7
20260503004504 52 257 1.7 2.6 0.00 0.43 0.00 92 1009.7
20260503004004 52 265 2.6 6.1 0.00 0.43 0.00 92 1009.7
20260503003504 52 241 1.7 5.2 0.00 0.43 0.00 92 1009.9
20260503003004 52 238 1.7 2.6 0.00 0.43 0.00 92 1010.0
20260503002503 52 238 1.7 2.6 0.00 0.43 0.00 92 1010.0
20260503002005 52 238 0.9 2.6 0.00 0.43 0.00 92 1010.0
20260503001503 52 238 1.7 2.6 0.00 0.43 0.00 92 1010.0
20260503001003 52 236 2.6 4.3 0.00 0.43 0.00 92 1010.1
20260503000504 52 240 1.7 2.6 0.00 0.43 0.00 92 1010.1
20260502235504 51 238 0.0 0.0 0.00 0.43 0.00 92 1010.1
20260502235004 52 238 0.0 0.0 0.00 0.43 0.00 92 1010.0
20260502234004 52 238 0.0 0.0 0.00 0.43 0.00 92 1010.2
20260502233505 52 238 0.0 0.0 0.00 0.43 0.00 92 1010.3
20260502233004 52 238 0.0 0.0 0.00 0.43 0.00 92 1010.3
20260502232504 52 238 0.0 0.0 0.00 0.43 0.00 92 1010.2
20260502232005 52 238 0.0 0.0 0.00 0.43 0.00 92 1010.3
20260502231504 52 238 0.0 0.0 0.00 0.43 0.00 92 1010.3
20260502231004 52 238 0.0 0.0 0.00 0.43 0.00 92 1010.3
20260502230504 52 238 0.0 0.0 0.00 0.43 0.00 92 1010.4
20260502230004 52 238 0.0 2.6 0.00 0.43 0.00 92 1010.4
20260502225504 52 242 1.7 2.6 0.00 0.43 0.43 92 1010.5
20260502225004 52 242 1.7 2.6 0.00 0.43 0.43 92 1010.6
20260502224004 52 204 1.7 2.6 0.00 0.43 0.43 92 1010.6
20260502223004 52 182 1.7 4.3 0.00 0.43 0.43 92 1010.6
20260502222504 52 149 0.0 2.6 0.00 0.43 0.43 92 1010.6
20260502222003 52 140 0.0 0.0 0.00 0.43 0.43 92 1010.6
20260502221503 52 140 0.0 0.0 0.00 0.43 0.43 92 1010.5
20260502221003 52 140 0.0 0.0 0.00 0.43 0.43 92 1010.5
20260502215504 52 140 0.0 0.0 0.00 0.43 0.43 91 1010.5
20260502215004 52 140 0.0 0.0 0.00 0.43 0.43 91 1010.5
20260502214504 52 140 0.0 0.0 0.00 0.43 0.43 91 1010.5
20260502212503 52 27 0.0 0.0 0.00 0.43 0.43 90 1010.4
20260502211503 52 27 0.0 0.0 0.00 0.43 0.43 90 1010.3
20260502211004 52 27 0.0 0.0 0.00 0.43 0.43 90 1010.4
20260502210504 53 27 0.0 0.0 0.00 0.43 0.43 91 1010.5
20260502210004 53 27 0.0 0.0 0.00 0.43 0.43 91 1010.5
20260502205504 53 27 0.0 0.0 0.00 0.43 0.43 91 1010.5
20260502205004 53 27 0.0 0.0 0.00 0.43 0.43 91 1010.6
20260502204503 53 26 0.0 0.0 0.00 0.43 0.43 91 1010.6
20260502204004 53 25 0.0 0.9 0.01 0.43 0.43 91 1010.6
20260502203503 53 25 0.0 1.7 0.01 0.43 0.43 90 1010.7
20260502203003 53 25 0.0 0.0 0.01 0.43 0.43 90 1010.8
20260502202503 53 25 0.0 0.9 0.01 0.43 0.43 90 1010.8
20260502202003 53 25 0.0 0.0 0.01 0.43 0.43 90 1010.7
20260502201505 53 25 0.0 0.0 0.01 0.43 0.43 90 1010.7
20260502201004 53 25 0.0 0.0 0.01 0.43 0.43 90 1010.7
20260502200503 53 25 0.0 0.0 0.01 0.43 0.43 90 1010.7
20260502200004 53 25 0.0 0.9 0.01 0.43 0.43 90 1010.7
20260502195504 53 25 0.9 1.7 0.02 0.43 0.43 90 1010.8
20260502194503 53 24 0.9 1.7 0.02 0.43 0.43 90 1010.7
20260502194004 53 23 0.9 1.7 0.02 0.42 0.42 90 1010.7
20260502193504 53 17 0.9 1.7 0.02 0.42 0.42 90 1010.7
20260502193004 53 0 0.0 0.9 0.02 0.42 0.42 90 1010.7
20260502192503 53 355 0.9 1.7 0.02 0.42 0.42 89 1010.6
20260502192004 53 342 0.0 0.0 0.03 0.42 0.42 89 1010.6
20260502191504 53 338 0.0 0.0 0.03 0.42 0.42 89 1010.6
20260502191004 53 332 0.0 0.0 0.03 0.42 0.42 89 1010.7
20260502190503 53 332 0.0 1.7 0.04 0.42 0.42 89 1010.7
20260502190004 53 333 0.0 1.7 0.04 0.42 0.42 89 1010.7
20260502185503 53 333 0.0 0.0 0.04 0.41 0.41 89 1010.8
20260502185004 53 333 0.0 0.9 0.04 0.41 0.41 89 1010.8
20260502184505 53 333 0.0 0.0 0.03 0.40 0.40 89 1010.8
20260502184004 54 333 0.0 0.0 0.03 0.40 0.40 89 1010.8
20260502183504 54 333 0.0 1.7 0.03 0.40 0.40 89 1010.9
20260502183004 54 333 0.9 1.7 0.04 0.40 0.40 89 1010.9
20260502182504 54 331 0.9 2.6 0.04 0.39 0.39 89 1010.9
20260502182004 54 331 0.9 2.6 0.03 0.39 0.39 89 1010.9
20260502181004 54 331 0.9 1.7 0.05 0.39 0.39 89 1011.1
20260502180504 54 331 0.9 1.7 0.05 0.38 0.38 89 1011.1
20260502170503 55 48 0.9 2.6 0.17 0.33 0.33 88 1011.5
20260502164004 55 177 1.7 2.6 0.19 0.28 0.28 86 1012.0
20260502163004 55 136 0.9 1.7 0.18 0.24 0.24 85 1012.1
20260502162503 55 136 0.0 0.0 0.18 0.23 0.23 85 1012.2
20260502162004 55 136 0.0 0.0 0.18 0.22 0.22 84 1012.1
20260502161504 55 134 0.0 0.9 0.18 0.20 0.20 84 1012.2
20260502161004 56 134 0.0 0.9 0.17 0.19 0.19 83 1012.2
20260502160504 56 134 0.9 0.9 0.16 0.17 0.17 82 1012.4
20260502151504 59 117 0.9 2.6 0.02 0.02 0.02 74 1012.8
20260502151004 60 117 0.9 1.7 0.02 0.02 0.02 73 1012.7
20260502150503 60 117 0.0 0.9 0.01 0.01 0.01 70 1012.7
20260502123503 66 64 1.7 2.6 0.00 0.00 0.00 61 1014.1
20260502123004 65 215 0.9 2.6 0.00 0.00 0.00 61 1014.2
20260502122004 65 228 1.7 4.3 0.00 0.00 0.00 61 1014.4
20260502121504 65 228 1.7 5.2 0.00 0.00 0.00 60 1014.5
20260502120503 65 281 2.6 7.8 0.00 0.00 0.00 61 1014.6
20260502115003 65 123 1.7 2.6 0.00 0.00 0.00 62 1014.8
20260502114004 64 114 2.6 6.1 0.00 0.00 0.00 62 1014.9
20260502113503 64 125 2.6 6.1 0.00 0.00 0.00 63 1015.0
20260502113004 64 146 3.5 6.1 0.00 0.00 0.00 64 1015.1
20260502112504 63 95 1.7 2.6 0.00 0.00 0.00 65 1015.2
20260502112003 62 99 4.3 7.8 0.00 0.00 0.00 68 1015.4
20260502111504 62 119 0.9 5.2 0.00 0.00 0.00 68 1015.5
20260502111004 61 142 1.7 5.2 0.00 0.00 0.00 68 1015.7
20260502110504 61 163 2.6 6.1 0.00 0.00 0.00 66 1015.7
20260502110004 61 130 3.5 7.0 0.00 0.00 0.00 68 1015.8
20260502105503 61 186 2.6 7.8 0.00 0.00 0.00 69 1015.8
20260502105003 60 112 3.5 8.7 0.00 0.00 0.00 69 1015.9
20260502104503 60 202 2.6 5.2 0.00 0.00 0.00 68 1016.0
20260502104004 61 214 1.7 2.6 0.00 0.00 0.00 67 1015.9
20260502103504 61 215 1.7 4.3 0.00 0.00 0.00 66 1015.9
20260502103003 61 185 1.7 2.6 0.00 0.00 0.00 67 1016.0
20260502102504 61 181 3.5 6.1 0.00 0.00 0.00 67 1016.0
20260502102005 61 134 1.7 6.1 0.00 0.00 0.00 72 1016.0
20260502101504 60 114 4.3 7.0 0.00 0.00 0.00 70 1016.0
20260502101005 60 102 2.6 5.2 0.00 0.00 0.00 72 1016.1
20260502100504 59 134 3.5 6.1 0.00 0.00 0.00 73 1016.2
20260502091004 57 231 0.9 1.7 0.00 0.00 0.00 81 1016.4
20260502071003 49 233 0.0 0.9 0.00 0.00 0.00 91 1017.2
20260502070504 49 233 0.0 0.9 0.00 0.00 0.00 92 1017.2
20260502070004 48 201 0.0 0.9 0.00 0.00 0.00 93 1017.2
20260502065503 48 229 0.0 0.0 0.00 0.00 0.00 93 1017.2
20260502065005 47 229 0.0 0.0 0.00 0.00 0.00 93 1017.2
20260502064504 47 229 0.0 0.0 0.00 0.00 0.00 93 1017.3
20260502064003 47 229 0.0 0.0 0.00 0.00 0.00 94 1017.3
20260502063504 46 229 0.0 0.0 0.00 0.00 0.00 94 1017.3
20260502063004 46 229 0.0 0.0 0.00 0.00 0.00 94 1017.4
20260502062504 46 229 0.0 0.0 0.00 0.00 0.00 94 1017.4
20260502062004 45 229 0.0 0.0 0.00 0.00 0.00 94 1017.5
20260502061504 45 229 0.0 0.0 0.00 0.00 0.00 94 1017.5
20260502061004 44 229 0.0 0.0 0.00 0.00 0.00 94 1017.6
20260502060503 44 229 0.0 0.0 0.00 0.00 0.00 94 1017.6
20260502060004 44 229 0.0 0.0 0.00 0.00 0.00 93 1017.6
20260502055004 43 229 0.0 0.0 0.00 0.00 0.00 93 1017.5
20260502054503 43 229 0.0 0.0 0.00 0.00 0.00 92 1017.6
20260502054004 42 229 0.0 0.0 0.00 0.00 0.00 92 1017.6
20260502053504 42 229 0.0 0.0 0.00 0.00 0.00 92 1017.6
20260502053004 42 229 0.0 0.0 0.00 0.00 0.00 92 1017.6
20260502052504 42 229 0.0 0.0 0.00 0.00 0.00 91 1017.5
20260502052004 42 229 0.0 0.0 0.00 0.00 0.00 91 1017.5
20260502051504 42 229 0.0 0.0 0.00 0.00 0.00 91 1017.4
20260502051004 42 229 0.0 0.0 0.00 0.00 0.00 91 1017.4
20260502050504 42 229 0.0 0.0 0.00 0.00 0.00 91 1017.3
20260502050003 42 226 0.0 0.0 0.00 0.00 0.00 91 1017.2
20260502045504 42 226 0.0 0.0 0.00 0.00 0.00 91 1017.2
20260502044504 42 226 0.0 0.0 0.00 0.00 0.00 91 1017.2
20260502044004 42 226 0.0 0.0 0.00 0.00 0.00 91 1017.1
20260502043003 42 226 0.0 0.0 0.00 0.00 0.00 91 1017.1
20260502042503 42 226 0.0 0.0 0.00 0.00 0.00 91 1017.1
20260502042004 42 226 0.0 0.0 0.00 0.00 0.00 91 1017.2
20260502041503 42 226 0.0 0.0 0.00 0.00 0.00 91 1017.3
20260502041003 42 226 0.0 0.0 0.00 0.00 0.00 91 1017.3
20260502040504 42 226 0.0 0.0 0.00 0.00 0.00 91 1017.3
20260502040004 42 226 0.0 0.0 0.00 0.00 0.00 91 1017.3
20260502035503 42 226 0.9 0.9 0.00 0.00 0.00 90 1017.3
20260502035003 42 226 0.0 0.0 0.00 0.00 0.00 90 1017.4
20260502034004 42 226 0.0 0.9 0.00 0.00 0.00 90 1017.5
20260502033503 43 226 0.0 0.9 0.00 0.00 0.00 90 1017.6
20260502033004 43 226 0.0 0.9 0.00 0.00 0.00 90 1017.7
20260502032504 43 226 0.0 0.0 0.00 0.00 0.00 91 1017.7
20260502031504 43 226 0.0 0.0 0.00 0.00 0.00 90 1017.8
20260502031004 43 226 0.0 2.6 0.00 0.00 0.00 90 1017.9
20260502030503 43 226 0.9 1.7 0.00 0.00 0.00 90 1017.9
20260502030004 43 226 0.9 1.7 0.00 0.00 0.00 90 1017.9
20260502025503 43 226 0.0 0.0 0.00 0.00 0.00 90 1018.0
20260502025003 43 226 0.0 0.0 0.00 0.00 0.00 90 1018.0
20260502024503 43 226 0.0 0.0 0.00 0.00 0.00 90 1018.0
20260502024004 43 226 0.0 0.0 0.00 0.00 0.00 90 1018.0
20260502023503 43 226 0.0 0.9 0.00 0.00 0.00 90 1018.1
20260502022503 44 225 0.0 1.7 0.00 0.00 0.00 90 1018.2
20260502022003 44 225 0.0 1.7 0.00 0.00 0.00 90 1018.4